�N����,����,�~����,�C��,���x,�C��,����,���ϕ���,�ő�u�ԕ���,�ő厞����,���˗�,�I�_���x,�n�����x
"18/08/01","01:00",0.0,24.4,88.8,998.4,293.4,0.7,1.3,328.6,0.00,22.5,26.4
"18/08/01","02:00",0.0,24.2,89.4,998.4,327.0,0.8,1.4,323.4,0.00,22.4,26.3
"18/08/01","03:00",0.0,23.7,90.7,998.9,298.3,1.0,2.0,309.7,0.00,22.1,25.8
"18/08/01","04:00",0.0,23.4,91.4,998.6,298.5,1.0,1.7,292.0,0.00,22.0,25.6
"18/08/01","05:00",0.0,22.9,92.8,999.3,312.3,1.1,2.0,326.0,0.00,21.7,25.4
"18/08/01","06:00",0.0,22.9,93.3,999.6,321.6,1.2,1.6,303.1,0.00,21.8,25.6
"18/08/01","07:00",0.0,26.4,83.5,999.6,46.5,0.1,1.3,324.1,0.17,23.4,25.3
"18/08/01","08:00",0.0,28.8,71.1,999.3,28.0,0.6,1.7,346.5,0.88,23.1,25.7
"18/08/01","09:00",0.0,31.0,66.6,1000.5,139.3,0.8,2.4,153.9,1.72,24.1,26.2
"18/08/01","10:00",0.0,31.7,61.9,1001.2,195.7,1.1,2.5,224.2,2.49,23.5,26.5
"18/08/01","11:00",0.0,33.6,57.7,1001.2,111.0,1.0,2.6,6.1,3.02,24.1,27.3
"18/08/01","12:00",0.0,34.5,56.2,1000.8,149.9,1.6,3.7,115.7,3.44,24.5,28.6
"18/08/01","13:00",0.0,34.7,53.9,1000.0,231.6,1.5,4.1,212.9,2.91,24.0,29.7
"18/08/01","14:00",0.0,34.2,53.4,998.9,282.5,0.6,4.5,220.9,2.26,23.4,29.8
"18/08/01","15:00",0.0,36.4,49.6,998.9,254.9,1.0,5.6,341.6,2.08,24.2,29.8
"18/08/01","16:00",0.0,36.3,46.0,998.6,214.4,2.0,4.5,225.4,2.22,22.9,30.4
"18/08/01","17:00",0.0,35.8,47.9,998.2,316.0,1.6,5.1,228.1,1.49,23.1,30.2
"18/08/01","18:00",0.0,34.3,52.6,997.9,263.0,1.2,4.9,229.3,0.52,23.3,30.0
"18/08/01","19:00",0.0,32.2,58.6,997.2,260.4,1.3,4.9,223.9,0.05,23.1,29.5
"18/08/01","20:00",0.0,30.6,64.3,997.2,44.7,0.6,3.5,308.3,0.00,23.1,28.9
"18/08/01","21:00",0.0,29.3,69.2,998.2,301.9,0.5,3.3,343.6,0.00,23.1,28.2
"18/08/01","22:00",0.0,28.0,74.3,998.6,328.2,1.0,2.0,340.9,0.00,23.0,27.8
"18/08/01","23:00",0.0,26.8,80.7,998.9,331.4,1.6,2.9,335.0,0.00,23.2,27.4
"18/08/01","24:00",0.0,25.8,84.3,999.1,311.3,1.1,2.1,318.1,0.00,23.0,27.1
"18/08/02","01:00",0.0,25.7,84.5,999.3,305.3,1.2,2.5,341.3,0.00,22.9,26.7
"18/08/02","02:00",0.0,25.7,84.0,999.1,326.7,2.2,3.5,339.2,0.00,22.8,26.4
"18/08/02","03:00",0.0,25.4,83.4,999.6,307.6,0.7,2.8,340.1,0.00,22.4,26.2
"18/08/02","04:00",0.0,25.5,84.5,999.6,314.1,1.2,3.3,330.3,0.00,22.7,25.8
"18/08/02","05:00",0.0,24.9,86.6,1000.0,310.4,0.7,2.8,341.6,0.00,22.6,25.7
"18/08/02","06:00",0.0,25.0,87.6,1000.5,304.7,1.0,3.4,338.1,0.00,22.8,25.7
"18/08/02","07:00",0.0,27.7,80.1,1000.3,340.8,0.8,3.3,333.3,0.25,24.0,25.7
"18/08/02","08:00",0.0,30.0,72.4,1000.0,28.4,1.0,2.6,349.0,0.74,24.5,26.5
"18/08/02","09:00",0.0,30.5,72.4,1001.9,159.0,1.3,3.5,202.2,1.61,25.0,27.5
"18/08/02","10:00",0.0,32.1,65.8,1002.4,209.8,1.0,3.2,224.6,1.70,24.9,28.5
"18/08/02","11:00",0.0,33.5,60.1,1003.1,240.6,1.1,3.5,213.4,2.81,24.7,29.6
"18/08/02","12:00",0.0,34.3,57.6,1003.4,346.2,1.1,4.9,348.1,3.17,24.8,31.0
"18/08/02","13:00",0.0,35.9,51.3,1002.6,248.7,1.5,4.0,211.6,3.24,24.3,32.3
"18/08/02","14:00",0.0,36.7,48.2,1002.2,320.6,1.8,4.9,351.5,3.34,24.0,32.4
"18/08/02","15:00",0.0,37.5,47.9,1001.5,213.6,2.0,4.8,344.6,2.99,24.6,32.7
"18/08/02","16:00",0.0,36.7,49.7,1000.5,256.4,1.3,5.5,353.2,2.30,24.5,32.8
"18/08/02","17:00",0.0,33.2,61.1,999.8,100.0,1.3,3.6,219.8,0.31,24.7,32.2
"18/08/02","18:00",0.4,29.4,76.6,998.2,317.0,1.6,6.7,329.8,0.13,24.9,31.2
"18/08/02","19:00",0.0,28.5,76.6,999.3,335.4,2.5,6.7,347.7,0.00,24.0,30.3
"18/08/02","20:00",0.0,27.7,82.7,999.8,325.4,1.7,7.0,325.3,0.00,24.5,29.5
"18/08/02","21:00",0.0,27.2,84.8,1000.5,331.7,2.0,4.4,339.2,0.00,24.5,29.0
"18/08/02","22:00",0.0,26.9,87.3,1001.0,331.1,1.3,4.5,330.4,0.00,24.6,28.4
"18/08/02","23:00",0.0,26.6,88.1,1001.0,323.8,1.7,3.3,340.7,0.00,24.5,28.2
"18/08/02","24:00",0.0,26.4,88.0,1001.0,329.0,2.5,4.2,350.7,0.00,24.3,27.8
"18/08/03","01:00",0.0,26.2,88.8,1000.8,331.3,2.0,3.6,339.7,0.00,24.2,27.5
"18/08/03","02:00",0.0,25.3,89.8,1001.5,343.5,1.3,3.4,337.8,0.00,23.5,27.2
"18/08/03","03:00",0.0,25.1,90.2,1001.2,342.3,1.6,4.4,338.5,0.00,23.4,26.8
"18/08/03","04:00",0.0,24.9,91.0,1001.2,341.7,1.2,4.0,341.8,0.00,23.4,26.6
"18/08/03","05:00",0.0,24.5,90.7,1001.9,346.3,1.3,3.4,354.2,0.00,22.9,26.4
"18/08/03","06:00",0.0,24.3,91.5,1002.4,343.8,1.1,2.8,335.9,0.00,22.9,26.2
"18/08/03","07:00",0.0,26.5,87.3,1002.4,338.3,1.7,4.1,328.8,0.19,24.3,26.1
"18/08/03","08:00",0.0,28.5,78.2,1002.2,327.7,1.1,3.7,335.4,0.88,24.4,26.7
"18/08/03","09:00",0.0,30.4,72.0,1002.6,340.4,2.0,4.2,338.1,1.71,24.8,27.6
"18/08/03","10:00",0.0,32.4,59.8,1004.3,265.9,1.2,3.5,339.2,2.45,23.6,29.1
"18/08/03","11:00",0.0,34.5,53.8,1004.3,291.0,0.8,3.3,351.3,2.98,23.8,30.5
"18/08/03","12:00",0.0,35.4,48.6,1003.6,254.7,1.5,4.2,208.1,3.29,23.0,31.7
"18/08/03","13:00",0.0,36.4,43.8,1003.1,254.4,1.5,5.8,220.0,3.34,22.2,32.7
"18/08/03","14:00",0.0,37.7,39.0,1002.6,285.4,1.5,5.5,221.7,3.25,21.4,32.7
"18/08/03","15:00",0.0,37.0,41.8,1002.2,353.1,2.5,5.9,213.0,2.79,21.9,33.0
"18/08/03","16:00",0.0,37.2,40.5,1001.5,15.9,1.7,4.9,306.3,2.01,21.6,32.8
"18/08/03","17:00",0.0,35.5,40.3,1001.2,2.3,2.3,5.4,344.7,1.38,20.0,32.4
"18/08/03","18:00",0.0,33.4,38.7,1000.8,344.0,2.2,6.0,335.4,0.56,17.5,31.5
"18/08/03","19:00",0.0,30.9,41.7,999.6,333.3,1.3,4.7,335.3,0.02,16.4,30.7
"18/08/03","20:00",0.0,29.3,46.7,998.9,0.2,1.5,3.5,17.8,0.00,16.8,29.9
"18/08/03","21:00",0.0,28.7,47.5,1000.3,356.8,1.2,4.3,342.6,0.00,16.5,29.0
"18/08/03","22:00",0.0,26.2,58.6,1000.8,46.4,0.3,3.2,325.9,0.00,17.5,28.4
"18/08/03","23:00",0.0,25.5,58.9,1001.2,302.0,1.1,1.7,325.4,0.00,16.9,27.7
"18/08/03","24:00",0.0,26.4,57.3,1001.2,335.8,2.6,4.9,343.7,0.00,17.3,27.3
"18/08/04","01:00",0.0,25.6,63.9,1001.0,327.4,1.8,4.5,324.3,0.00,18.3,26.9
"18/08/04","02:00",0.0,24.9,70.1,1001.0,346.7,2.1,4.8,340.5,0.00,19.1,26.5
"18/08/04","03:00",0.0,24.7,73.4,1001.2,346.5,1.3,4.7,335.0,0.00,19.7,26.2
"18/08/04","04:00",0.0,24.4,76.4,1001.2,337.1,2.8,5.7,330.1,0.00,20.0,26.1
"18/08/04","05:00",0.0,23.9,79.9,1001.5,337.1,2.8,5.2,339.8,0.00,20.3,25.8
"18/08/04","06:00",0.0,23.8,82.0,1002.2,331.6,2.2,6.6,343.7,0.00,20.6,25.7
"18/08/04","07:00",0.0,25.4,78.3,1002.4,338.5,2.0,3.7,341.9,0.17,21.4,25.6
"18/08/04","08:00",0.0,28.4,69.1,1001.7,34.2,0.8,3.1,348.0,0.83,22.2,26.2
"18/08/04","09:00",0.0,30.6,64.2,1003.1,57.6,0.7,2.2,351.0,1.68,23.1,27.6
"18/08/04","10:00",0.0,32.4,56.6,1004.1,53.4,0.8,3.2,202.7,2.42,22.7,29.0
"18/08/04","11:00",0.0,33.4,54.6,1004.3,168.9,1.5,3.9,217.3,2.98,23.0,30.6
"18/08/04","12:00",0.0,35.0,50.5,1003.6,224.2,1.3,5.1,216.3,3.31,23.2,32.2
"18/08/04","13:00",0.0,35.6,46.5,1002.6,212.4,1.8,5.4,218.3,3.36,22.4,33.4
"18/08/04","14:00",0.0,37.0,41.7,1002.4,187.7,1.5,4.7,214.0,3.22,21.9,33.3
"18/08/04","15:00",0.0,37.4,39.8,1001.9,355.0,2.1,5.5,229.9,2.86,21.5,33.6
"18/08/04","16:00",0.0,36.4,39.0,1001.0,347.5,3.0,6.2,343.5,2.22,20.3,33.2
"18/08/04","17:00",0.0,35.7,37.5,1000.5,15.3,2.2,6.8,346.1,1.45,19.0,32.5
"18/08/04","18:00",0.0,34.2,42.3,999.6,359.7,1.7,5.2,349.3,0.58,19.6,31.9
"18/08/04","19:00",0.0,31.3,48.6,998.9,346.3,2.0,4.5,345.7,0.01,19.2,31.0
"18/08/04","20:00",0.0,29.4,55.7,998.4,342.7,1.5,3.7,333.8,0.00,19.7,30.2
"18/08/04","21:00",0.0,27.4,62.7,999.6,324.9,1.2,2.8,328.3,0.00,19.7,29.5
"18/08/04","22:00",0.0,26.2,65.7,1000.0,215.8,0.3,3.5,339.2,0.00,19.3,28.7
"18/08/04","23:00",0.0,26.3,65.0,1000.8,345.8,2.1,5.5,324.8,0.00,19.2,28.2
"18/08/04","24:00",0.0,26.2,64.3,1000.3,348.0,1.7,5.0,343.0,0.00,19.0,27.7
"18/08/05","01:00",0.0,25.0,69.6,1000.5,298.3,0.6,3.5,334.6,0.00,19.1,27.4
"18/08/05","02:00",0.0,24.9,70.8,1000.3,338.3,1.8,4.8,349.1,0.00,19.3,27.0
"18/08/05","03:00",0.0,24.4,72.4,1000.3,336.6,1.8,4.4,344.1,0.00,19.2,26.6
"18/08/05","04:00",0.0,23.6,76.1,1000.8,323.2,0.8,3.5,345.2,0.00,19.2,26.3
"18/08/05","05:00",0.0,23.4,79.3,1000.8,314.5,1.3,2.8,325.0,0.00,19.7,25.9
"18/08/05","06:00",0.0,22.9,82.3,1001.2,311.2,1.0,3.2,338.0,0.00,19.8,25.8
"18/08/05","07:00",0.0,26.2,74.0,1001.2,2.8,0.3,1.6,335.8,0.17,21.2,25.9
"18/08/05","08:00",0.0,28.5,62.2,1000.5,29.8,0.6,1.7,21.4,0.73,20.6,26.7
"18/08/05","09:00",0.0,30.5,54.1,1001.5,36.9,1.1,2.0,39.5,1.33,20.2,27.7
"18/08/05","10:00",0.0,32.8,47.0,1002.9,43.4,1.1,2.2,354.0,2.25,20.0,29.1
"18/08/05","11:00",0.0,34.7,46.3,1003.6,156.4,1.2,3.3,209.9,2.87,21.5,30.8
"18/08/05","12:00",0.0,35.6,47.0,1002.2,199.6,1.6,5.0,209.7,2.89,22.6,32.2
"18/08/05","13:00",0.0,36.9,44.1,1001.5,203.8,2.1,5.2,225.6,3.25,22.7,33.4
"18/08/05","14:00",0.0,37.9,39.7,1001.0,222.7,2.3,5.8,221.4,3.27,21.9,33.6
"18/08/05","15:00",0.0,38.3,38.6,1000.3,227.5,1.8,5.6,197.5,2.81,21.8,33.7
"18/08/05","16:00",0.0,38.2,40.4,999.3,225.2,1.1,4.1,220.2,1.61,22.4,33.7
"18/08/05","17:00",0.0,38.1,40.5,999.3,310.2,1.1,4.2,197.9,1.61,22.4,33.8
"18/08/05","18:00",0.0,36.6,46.6,998.6,228.3,1.2,3.2,346.3,0.59,23.4,33.4
"18/08/05","19:00",0.0,34.5,53.2,998.2,276.2,0.6,5.2,224.2,0.07,23.6,32.3
"18/08/05","20:00",0.0,32.3,57.5,997.7,347.0,2.2,4.9,333.8,0.00,22.9,31.5
"18/08/05","21:00",0.0,31.2,61.0,998.2,350.4,1.6,4.9,344.1,0.00,22.8,31.0
"18/08/05","22:00",0.0,29.6,67.7,997.9,352.5,1.0,2.4,359.9,0.00,23.0,30.2
"18/08/05","23:00",0.0,28.8,71.1,998.4,358.2,0.8,2.9,345.7,0.00,23.1,29.7
"18/08/05","24:00",0.0,27.6,75.5,998.4,294.1,0.7,1.9,349.7,0.00,22.9,29.2
"18/08/06","01:00",0.0,26.6,80.0,998.4,297.9,0.8,1.7,340.2,0.00,22.9,28.7
"18/08/06","02:00",0.0,26.7,81.0,997.7,285.8,0.8,2.0,324.0,0.00,23.2,28.2
"18/08/06","03:00",0.0,26.9,80.1,998.2,343.9,1.0,2.6,323.4,0.00,23.2,27.8
"18/08/06","04:00",0.0,27.0,79.8,997.9,326.6,0.7,2.2,347.4,0.00,23.3,27.8
"18/08/06","05:00",0.0,25.9,82.8,998.6,279.0,0.8,1.9,339.8,0.00,22.8,27.6
"18/08/06","06:00",0.0,26.1,82.7,998.6,338.2,1.2,2.2,346.3,0.00,23.0,27.5
"18/08/06","07:00",0.0,28.4,76.6,998.9,333.8,0.8,2.7,344.1,0.17,23.9,27.3
"18/08/06","08:00",0.0,30.2,68.2,998.9,318.1,0.6,2.8,226.7,0.57,23.7,27.9
"18/08/06","09:00",0.0,31.8,61.3,999.3,19.9,2.1,4.7,29.6,1.65,23.5,28.9
"18/08/06","10:00",0.0,33.5,57.4,1000.8,16.0,1.6,5.4,347.0,2.43,24.0,30.2
"18/08/06","11:00",0.0,33.0,58.1,1000.3,4.1,1.7,5.4,346.8,2.20,23.7,31.3
"18/08/06","12:00",0.0,33.4,58.1,999.3,346.5,2.2,5.5,356.5,1.83,24.1,31.8
"18/08/06","13:00",0.0,33.8,56.4,999.3,11.2,1.7,5.9,336.7,1.77,24.0,31.8
"18/08/06","14:00",0.0,34.3,54.8,999.8,346.9,2.7,5.0,352.0,2.21,23.9,32.5
"18/08/06","15:00",0.0,35.1,55.6,998.6,358.5,2.2,5.8,327.2,1.91,24.9,32.5
"18/08/06","16:00",0.0,34.7,53.3,998.2,351.1,2.5,7.7,335.6,1.94,23.8,32.6
"18/08/06","17:00",0.0,32.8,59.0,997.7,348.1,3.7,9.6,325.5,1.27,23.8,32.2
"18/08/06","18:00",0.0,30.4,66.6,997.0,1.5,2.1,7.7,328.2,0.45,23.5,31.3
"18/08/06","19:00",0.0,29.3,69.0,996.5,335.0,1.6,5.5,347.6,0.02,23.1,30.9
"18/08/06","20:00",0.0,28.7,71.0,997.4,327.2,1.6,4.0,347.2,0.00,23.0,30.1
"18/08/06","21:00",0.0,28.1,72.1,998.4,340.3,1.7,4.7,338.8,0.00,22.6,29.5
"18/08/06","22:00",0.0,27.9,72.8,998.6,338.0,1.3,4.5,329.2,0.00,22.6,29.1
"18/08/06","23:00",0.0,27.3,74.1,998.9,332.7,2.3,4.4,336.0,0.00,22.3,28.6
"18/08/06","24:00",0.0,26.9,74.3,998.6,338.9,3.0,5.7,337.3,0.00,22.0,28.2
"18/08/07","01:00",0.0,26.7,72.8,998.9,340.1,2.3,5.7,315.4,0.00,21.5,27.7
"18/08/07","02:00",0.0,26.3,73.2,998.9,343.8,1.5,5.6,342.0,0.00,21.2,27.7
"18/08/07","03:00",0.0,26.0,74.1,998.6,341.4,1.7,4.4,344.6,0.00,21.1,27.2
"18/08/07","04:00",0.0,26.0,73.5,998.9,320.0,1.3,5.2,340.1,0.00,20.9,27.0
"18/08/07","05:00",0.0,25.6,75.7,999.3,307.1,1.2,3.1,336.6,0.00,21.0,26.9
"18/08/07","06:00",0.0,25.7,74.7,1000.0,321.9,1.2,4.3,340.0,0.00,20.9,26.8
"18/08/07","07:00",0.0,26.0,75.3,1000.3,282.7,1.2,4.0,349.1,0.07,21.3,26.7
"18/08/07","08:00",0.0,27.9,69.5,1000.0,340.7,3.4,7.3,346.9,0.51,21.8,27.1
"18/08/07","09:00",0.0,29.8,61.3,1000.3,2.4,2.0,7.4,338.2,1.65,21.6,28.0
"18/08/07","10:00",0.0,31.8,55.9,1001.7,9.1,1.6,5.1,345.2,2.46,21.9,29.4
"18/08/07","11:00",0.0,31.9,53.2,1001.7,19.9,1.8,6.4,345.3,2.81,21.2,30.9
"18/08/07","12:00",0.0,34.4,48.5,1001.5,31.9,1.5,5.4,346.5,3.45,22.0,32.8
"18/08/07","13:00",0.0,32.8,50.3,1001.7,353.6,1.2,5.0,343.4,3.33,21.1,33.9
"18/08/07","14:00",0.0,32.9,49.6,999.8,32.5,1.3,4.2,5.5,1.81,21.0,33.2
"18/08/07","15:00",0.0,32.8,48.3,998.9,349.9,1.8,5.2,345.9,1.23,20.5,32.9
"18/08/07","16:00",0.0,33.9,47.3,999.1,352.1,2.2,5.0,332.7,2.39,21.1,33.2
"18/08/07","17:00",0.0,31.3,49.1,998.2,4.3,2.5,6.2,338.6,1.29,19.4,32.6
"18/08/07","18:00",0.0,29.5,53.6,997.7,353.5,3.1,6.0,347.0,0.55,19.1,31.7
"18/08/07","19:00",0.0,26.9,61.7,997.9,338.9,3.5,10.6,338.5,0.01,19.0,30.2
"18/08/07","20:00",0.0,25.7,67.2,998.6,344.6,3.4,6.3,353.7,0.00,19.2,29.6
"18/08/07","21:00",0.0,24.9,69.9,999.3,341.8,3.5,7.0,349.9,0.00,19.1,28.7
"18/08/07","22:00",0.0,24.5,72.0,999.8,330.9,1.6,6.0,331.7,0.00,19.2,28.1
"18/08/07","23:00",0.0,23.4,77.4,1000.5,306.9,1.0,3.7,338.0,0.00,19.3,27.5
"18/08/07","24:00",0.0,22.1,83.9,999.8,306.5,0.8,2.5,331.0,0.00,19.3,27.1
"18/08/08","01:00",0.0,22.4,83.2,999.8,313.1,1.2,2.8,334.5,0.00,19.5,26.4
"18/08/08","02:00",0.0,22.3,86.7,999.1,320.9,2.0,3.1,323.4,0.00,20.0,26.1
"18/08/08","03:00",0.0,22.6,84.3,998.4,310.5,1.5,4.5,341.5,0.00,19.9,26.0
"18/08/08","04:00",0.0,22.3,85.3,997.7,303.8,1.3,3.5,329.9,0.00,19.8,25.5
"18/08/08","05:00",0.0,21.9,86.3,998.4,318.6,1.0,3.2,333.4,0.00,19.5,25.5
"18/08/08","06:00",0.0,21.5,88.9,998.6,337.0,1.6,2.4,335.0,0.00,19.6,25.2
"18/08/08","07:00",0.0,24.6,78.5,999.1,329.7,1.6,4.1,344.0,0.15,20.7,25.4
"18/08/08","08:00",0.0,26.4,70.8,998.4,328.9,1.8,4.8,354.1,0.82,20.7,25.8
"18/08/08","09:00",0.0,26.9,69.5,997.4,301.2,1.5,5.4,351.8,1.32,20.9,27.0
"18/08/08","10:00",0.0,26.7,72.8,996.7,332.3,1.5,4.4,341.0,1.06,21.5,27.5
"18/08/08","11:00",0.0,28.1,69.0,996.7,316.8,1.1,4.0,344.5,1.12,21.9,28.4
"18/08/08","12:00",0.0,28.1,70.2,996.0,325.3,1.8,7.3,317.7,1.36,22.2,28.7
"18/08/08","13:00",0.0,28.0,70.7,996.3,327.6,2.6,6.7,337.6,1.42,22.2,29.2
"18/08/08","14:00",0.0,29.3,66.8,995.3,341.4,1.5,7.2,323.1,1.57,22.5,29.7
"18/08/08","15:00",0.0,28.4,65.0,994.8,340.8,2.8,7.8,341.7,1.14,21.2,29.7
"18/08/08","16:00",0.0,27.5,67.5,994.8,347.7,2.7,9.5,320.6,0.38,21.0,29.2
"18/08/08","17:00",0.0,27.1,68.0,995.3,346.1,1.8,6.5,347.7,0.28,20.7,28.6
"18/08/08","18:00",0.0,26.8,66.8,995.6,337.0,1.8,6.7,347.3,0.26,20.2,28.5
"18/08/08","19:00",0.0,26.0,69.5,995.6,326.7,2.0,5.1,317.8,0.02,20.0,28.1
"18/08/08","20:00",0.0,26.0,71.7,995.8,346.5,0.7,4.4,332.5,0.00,20.5,27.5
"18/08/08","21:00",0.0,25.9,72.7,995.8,321.2,1.1,3.6,351.1,0.00,20.7,27.2
"18/08/08","22:00",0.0,26.0,74.1,995.6,291.2,1.0,2.7,343.7,0.00,21.1,26.8
"18/08/08","23:00",0.0,26.0,76.1,995.3,319.4,1.2,3.1,350.8,0.00,21.5,26.7
"18/08/08","24:00",0.0,25.9,77.5,995.1,301.9,1.1,3.4,326.4,0.00,21.7,26.8
"18/08/09","01:00",0.0,25.9,79.0,994.6,312.5,1.2,2.9,331.8,0.00,22.0,26.8
"18/08/09","02:00",0.0,25.8,80.2,994.6,312.1,1.5,3.9,287.4,0.00,22.2,26.4
"18/08/09","03:00",0.0,25.4,84.0,993.7,321.6,1.6,5.7,328.6,0.00,22.5,26.4
"18/08/09","04:00",0.0,25.3,85.3,993.9,333.2,2.1,4.4,341.6,0.00,22.7,26.2
"18/08/09","05:00",0.0,25.1,87.0,994.1,333.6,2.1,4.4,351.4,0.00,22.8,26.2
"18/08/09","06:00",0.0,25.1,87.8,994.4,317.8,1.6,4.5,336.6,0.00,23.0,26.1
"18/08/09","07:00",0.0,25.6,86.7,994.8,320.5,1.7,4.1,335.3,0.00,23.3,26.1
"18/08/09","08:00",0.0,25.9,85.5,995.1,316.2,1.5,4.9,343.6,0.12,23.3,26.3
"18/08/09","09:00",0.0,26.5,83.8,995.1,317.7,1.7,4.5,339.4,0.33,23.6,26.5
"18/08/09","10:00",0.0,27.4,82.2,994.6,278.1,1.2,3.5,329.0,0.70,24.1,27.0
"18/08/09","11:00",0.0,28.5,76.6,994.8,313.4,1.7,4.5,342.1,1.43,24.0,27.9
"18/08/09","12:00",0.0,28.3,78.5,994.4,331.2,2.0,4.9,344.6,1.08,24.2,28.5
"18/08/09","13:00",0.0,29.7,74.0,994.6,295.4,1.5,4.9,354.1,1.77,24.6,29.3
"18/08/09","14:00",0.0,31.5,66.2,995.1,342.2,1.6,6.0,337.6,1.66,24.5,30.0
"18/08/09","15:00",0.0,29.6,73.2,994.4,341.2,1.2,4.8,331.2,1.00,24.3,29.9
"18/08/09","16:00",0.0,29.2,74.9,993.9,286.3,1.1,4.2,345.4,0.64,24.3,29.8
"18/08/09","17:00",0.0,28.2,78.0,993.2,318.9,2.1,5.5,345.6,0.42,24.0,29.5
"18/08/09","18:00",0.0,28.9,75.3,993.4,300.4,1.5,5.2,338.2,0.56,24.1,29.1
"18/08/09","19:00",0.0,27.0,81.4,994.6,322.6,2.1,5.4,355.3,0.03,23.6,28.6
"18/08/09","20:00",0.0,26.4,83.4,995.3,306.2,1.1,3.7,346.6,0.00,23.4,28.0
"18/08/09","21:00",0.0,26.4,83.3,996.3,323.6,1.2,2.5,339.1,0.00,23.4,27.6
"18/08/09","22:00",0.0,26.3,83.7,996.5,329.3,1.8,3.3,347.1,0.00,23.4,27.6
"18/08/09","23:00",0.0,26.1,84.7,996.5,314.7,1.8,4.4,336.2,0.00,23.4,27.2
"18/08/09","24:00",0.0,26.2,84.2,996.3,324.4,1.7,3.2,341.8,0.00,23.4,27.1
"18/08/10","01:00",0.0,25.8,85.7,996.5,332.7,1.0,3.2,339.8,0.00,23.3,26.8
"18/08/10","02:00",0.0,25.7,85.6,996.0,333.8,2.7,4.9,342.4,0.00,23.1,26.7
"18/08/10","03:00",0.0,25.7,85.7,996.3,335.0,2.6,4.9,337.0,0.00,23.2,26.5
"18/08/10","04:00",0.0,25.4,86.2,996.3,330.8,2.1,5.7,343.8,0.00,23.0,26.4
"18/08/10","05:00",0.0,25.4,86.4,996.3,334.6,2.2,4.0,333.4,0.00,23.0,26.4
"18/08/10","06:00",0.0,25.8,85.7,996.5,306.3,1.2,2.7,346.8,0.00,23.3,26.2
"18/08/10","07:00",0.0,26.0,84.9,996.3,314.7,1.2,3.7,345.3,0.02,23.3,26.2
"18/08/10","08:00",0.0,26.6,82.9,996.7,300.0,1.2,2.4,258.5,0.14,23.5,26.6
"18/08/10","09:00",0.0,27.2,80.8,997.0,318.8,1.8,5.6,342.4,0.35,23.7,26.7
"18/08/10","10:00",0.0,28.1,80.3,997.2,305.9,1.5,3.7,326.3,0.69,24.4,27.0
"18/08/10","11:00",0.0,30.5,69.8,997.9,312.5,1.2,4.0,344.0,1.61,24.4,28.2
"18/08/10","12:00",0.0,31.1,68.3,998.6,346.3,2.0,4.8,348.0,2.37,24.6,29.8
"18/08/10","13:00",0.0,33.0,62.2,997.7,348.2,1.2,4.4,337.6,1.73,24.8,30.4
"18/08/10","14:00",0.0,34.1,57.3,997.9,223.1,1.5,4.0,217.0,2.61,24.5,31.7
"18/08/10","15:00",0.0,33.5,56.0,997.7,324.1,1.3,4.2,343.0,2.42,23.6,32.2
"18/08/10","16:00",0.0,32.7,60.5,997.0,329.0,2.3,5.0,330.6,1.38,24.1,31.9
"18/08/10","17:00",0.0,32.7,60.8,997.0,335.4,1.7,4.7,230.2,1.05,24.2,31.6
"18/08/10","18:00",0.0,31.8,63.9,996.3,257.3,0.7,3.9,345.1,0.53,24.2,31.5
"18/08/10","19:00",0.0,30.0,70.5,995.6,347.0,0.3,2.2,341.3,0.01,24.1,30.7
"18/08/10","20:00",0.0,28.5,76.3,996.0,279.2,0.6,1.4,347.0,0.00,24.0,29.9
"18/08/10","21:00",0.0,27.9,77.3,997.0,334.4,1.5,2.6,332.5,0.00,23.6,29.1
"18/08/10","22:00",0.0,27.7,77.6,997.7,337.3,1.3,2.8,328.5,0.00,23.5,28.8
"18/08/10","23:00",0.0,27.0,81.3,997.9,322.7,1.5,3.1,344.2,0.00,23.6,28.3
"18/08/10","24:00",0.0,26.7,81.2,997.9,337.3,2.2,4.3,344.0,0.00,23.2,28.2
"18/08/11","01:00",0.0,26.2,83.2,997.7,335.6,1.8,4.9,348.3,0.00,23.2,27.7
"18/08/11","02:00",0.0,26.0,83.6,998.2,336.8,1.3,3.1,344.5,0.00,23.0,27.5
"18/08/11","03:00",0.0,25.7,85.0,997.9,318.3,1.5,3.9,338.3,0.00,23.0,27.1
"18/08/11","04:00",0.0,25.6,85.3,998.2,335.8,2.2,4.3,336.4,0.00,23.0,26.9
"18/08/11","05:00",0.0,24.7,88.6,998.4,331.5,1.6,3.4,342.2,0.00,22.7,26.7
"18/08/11","06:00",0.0,24.9,88.7,998.6,341.3,1.8,3.5,339.3,0.00,22.9,26.4
"18/08/11","07:00",0.0,26.7,82.7,999.3,341.5,2.0,3.9,347.7,0.16,23.6,26.6
"18/08/11","08:00",0.0,29.1,74.1,998.6,301.2,0.5,3.9,348.9,0.79,24.1,27.3
"18/08/11","09:00",0.0,31.3,65.5,1001.0,80.8,0.7,2.5,353.3,1.66,24.1,28.6
"18/08/11","10:00",0.0,31.1,65.6,1001.2,269.7,0.6,3.1,125.5,1.94,23.9,30.0
"18/08/11","11:00",0.0,32.0,63.1,1000.5,302.2,1.0,3.6,278.1,1.64,24.1,30.7
"18/08/11","12:00",0.0,32.3,62.8,1000.0,62.9,1.0,3.2,336.1,1.48,24.3,31.4
"18/08/11","13:00",0.0,34.7,53.3,1001.2,219.6,1.5,5.5,217.0,3.30,23.8,32.7
"18/08/11","14:00",0.0,36.0,50.9,1001.0,152.1,1.0,3.9,193.9,2.86,24.3,33.8
"18/08/11","15:00",0.0,34.9,50.1,999.8,234.0,1.6,4.0,211.4,2.43,23.0,33.8
"18/08/11","16:00",0.0,34.7,51.8,998.6,231.8,1.2,3.1,208.2,0.79,23.4,33.3
"18/08/11","17:00",0.0,35.6,49.8,998.6,68.4,1.1,3.5,216.2,1.30,23.5,33.0
"18/08/11","18:00",0.0,32.3,63.2,997.7,354.0,1.8,4.8,347.8,0.31,24.4,32.4
"18/08/11","19:00",0.0,30.8,71.0,997.2,4.8,0.7,4.4,339.8,0.00,25.0,31.7
"18/08/11","20:00",0.0,30.9,68.4,998.4,335.8,1.1,4.1,346.8,0.00,24.4,31.0
"18/08/11","21:00",0.0,29.9,70.2,998.6,309.5,0.7,3.5,347.9,0.00,23.9,30.6
"18/08/11","22:00",0.0,29.0,72.9,999.6,325.5,1.1,2.8,341.3,0.00,23.7,30.0
"18/08/11","23:00",0.0,27.9,76.8,999.8,342.6,2.1,3.5,340.7,0.00,23.5,29.5
"18/08/11","24:00",0.0,27.4,77.9,1000.8,328.2,2.0,5.1,336.1,0.00,23.2,29.1
"18/08/12","01:00",0.0,27.2,79.3,1000.5,311.4,1.2,3.7,344.8,0.00,23.3,28.7
"18/08/12","02:00",0.4,26.8,80.7,1000.5,329.5,0.7,3.7,332.0,0.00,23.2,28.6
"18/08/12","03:00",0.0,25.9,85.8,1001.0,317.7,1.3,3.5,343.5,0.00,23.4,28.1
"18/08/12","04:00",0.0,26.4,84.2,1001.2,305.1,1.2,2.8,329.5,0.00,23.6,27.9
"18/08/12","05:00",0.0,26.1,86.1,1001.5,279.0,0.6,2.4,340.7,0.00,23.6,27.7
"18/08/12","06:00",0.0,26.5,85.5,1002.2,282.1,0.7,2.4,252.2,0.00,23.9,27.3
"18/08/12","07:00",0.0,27.6,82.9,1002.6,316.1,1.0,2.5,321.2,0.08,24.5,27.5
"18/08/12","08:00",0.0,29.7,76.6,1002.9,129.9,0.3,1.3,226.7,0.55,25.2,28.3
"18/08/12","09:00",0.0,30.2,73.3,1003.8,339.1,1.0,2.6,337.0,0.93,24.9,29.0
"18/08/12","10:00",0.0,31.1,70.0,1003.8,33.2,1.0,2.9,348.7,0.88,25.0,29.5
"18/08/12","11:00",0.0,32.0,66.8,1003.8,314.2,0.7,3.5,340.7,1.05,25.1,29.9
"18/08/12","12:00",0.0,35.4,55.1,1005.0,330.2,1.2,5.2,214.4,2.40,25.0,31.5
"18/08/12","13:00",0.0,35.2,54.5,1004.3,226.4,2.1,4.5,347.2,1.96,24.7,32.3
"18/08/12","14:00",0.0,35.4,51.6,1004.1,209.4,2.0,5.0,226.3,2.88,23.9,33.4
"18/08/12","15:00",0.0,34.3,55.3,1002.9,238.3,1.5,6.0,230.3,1.07,24.1,32.8
"18/08/12","16:00",0.0,32.6,58.7,1001.5,221.7,2.2,7.0,223.5,0.32,23.5,31.8
"18/08/12","17:00",0.0,32.3,62.0,1001.5,311.3,1.0,5.2,222.1,0.29,24.1,31.4
"18/08/12","18:00",0.0,32.0,63.0,1002.2,94.3,0.5,3.2,0.1,0.39,24.1,31.1
"18/08/12","19:00",0.0,30.7,70.8,1002.6,357.5,0.6,1.9,357.5,0.04,24.8,30.7
"18/08/12","20:00",0.0,29.0,77.9,1002.6,332.6,0.6,2.6,349.5,0.00,24.8,30.1
"18/08/12","21:00",0.0,28.0,80.3,1003.8,268.1,0.7,2.1,316.6,0.00,24.3,29.6
"18/08/12","22:00",0.0,27.7,80.2,1004.5,334.3,0.8,2.2,344.7,0.00,24.0,28.9
"18/08/12","23:00",0.0,27.0,80.8,1005.0,347.7,1.0,2.0,347.4,0.00,23.5,28.5
"18/08/12","24:00",0.0,26.1,84.6,1005.0,302.8,0.6,1.7,336.6,0.00,23.3,28.0
"18/08/13","01:00",0.0,25.7,85.2,1004.8,312.1,0.5,2.2,340.9,0.00,23.1,27.6
"18/08/13","02:00",0.0,25.3,86.3,1005.2,304.1,0.7,1.3,333.4,0.00,22.9,27.5
"18/08/13","03:00",0.0,24.9,86.5,1005.0,331.9,0.8,2.8,334.4,0.00,22.5,27.2
"18/08/13","04:00",0.0,24.3,88.3,1005.7,286.1,0.5,1.7,338.9,0.00,22.3,26.9
"18/08/13","05:00",0.0,23.9,90.4,1005.7,319.6,0.7,1.6,339.8,0.00,22.3,26.7
"18/08/13","06:00",0.0,24.0,91.6,1006.0,312.6,0.8,1.3,333.3,0.00,22.6,26.4
"18/08/13","07:00",0.0,26.2,86.0,1006.0,337.7,1.1,1.7,343.1,0.09,23.7,26.7
"18/08/13","08:00",0.0,29.9,70.4,1006.4,61.1,0.5,1.8,109.0,0.78,24.0,27.8
"18/08/13","09:00",0.0,30.8,68.5,1007.6,123.9,0.8,2.2,23.8,1.54,24.4,28.8
"18/08/13","10:00",0.0,32.5,64.4,1008.1,94.6,0.7,4.2,221.4,1.74,25.0,30.1
"18/08/13","11:00",0.0,33.9,59.6,1008.1,187.4,2.2,4.8,208.2,2.21,25.0,31.3
"18/08/13","12:00",0.0,35.6,54.8,1008.1,179.3,1.7,4.2,209.4,2.29,25.1,32.6
"18/08/13","13:00",0.0,35.7,51.9,1008.1,270.9,1.2,4.5,223.4,3.54,24.3,34.3
"18/08/13","14:00",0.0,37.8,44.4,1007.1,308.4,1.0,3.6,227.0,2.91,23.6,34.9
"18/08/13","15:00",0.0,35.4,52.6,1006.0,279.5,1.3,5.7,353.5,2.65,24.3,34.8
"18/08/13","16:00",0.0,31.4,66.6,1005.2,83.8,1.7,8.2,342.4,1.27,24.5,34.2
"18/08/13","17:00",8.2,28.2,82.6,1002.9,147.8,1.0,5.4,32.8,0.47,25.0,32.3
"18/08/13","18:00",0.0,27.5,82.2,1004.3,322.1,2.5,5.8,331.4,0.01,24.2,31.2
"18/08/13","19:00",0.0,27.3,75.7,1005.7,333.1,2.2,4.1,336.5,0.00,22.7,30.2
"18/08/13","20:00",0.0,26.6,80.4,1005.5,335.2,1.5,4.9,344.1,0.00,23.0,29.3
"18/08/13","21:00",0.0,26.0,86.2,1006.2,309.3,0.8,1.8,323.2,0.00,23.6,28.8
"18/08/13","22:00",0.0,25.8,87.0,1006.4,309.8,0.8,2.6,330.7,0.00,23.5,28.4
"18/08/13","23:00",0.0,25.7,87.1,1006.7,288.7,0.8,2.5,346.7,0.00,23.4,28.0
"18/08/13","24:00",0.0,25.9,87.1,1006.2,329.6,1.7,3.2,332.4,0.00,23.6,27.9
"18/08/14","01:00",0.0,25.5,88.2,1006.4,296.2,0.6,4.0,321.0,0.00,23.4,27.5
"18/08/14","02:00",0.0,25.0,90.0,1006.0,305.3,0.8,2.6,329.2,0.00,23.3,27.2
"18/08/14","03:00",0.0,24.8,90.8,1006.0,304.8,0.7,2.2,330.8,0.00,23.2,27.1
"18/08/14","04:00",0.0,24.3,92.3,1006.2,300.7,0.6,1.3,246.2,0.00,23.0,26.6
"18/08/14","05:00",0.0,24.4,92.7,1006.4,320.6,0.7,1.6,262.0,0.00,23.2,26.8